Location: Kernascl�den
(48.0062°N, 3.3198°W)
Time: 22:42:09
(UTC+00:00)

CZ-4B R/B - Pass Details

Date: 21 January 2021
Orbit: 387 x 458 km, 97.6° (Epoch: 04 March)

Event Time Altitude Azimuth Distance (km) Brightness Sun altitude
Exits shadow 18:55:22 - 359° (N) 1,850 4.4 -19.6°
Reaches altitude 10° 18:56:01 10° 356° (N) 1,591 4.1 -19.7°
Maximum altitude 18:59:06 33° 291° (WNW) 773 3.1 -20.2°
Drops below altitude 10° 19:02:07 10° 225° (SW) 1,545 4.8 -20.7°
Sets 19:04:12 0° 216° (SW) 2,394 5.7 -21.0°
